Вернуться в каталог

STARLINK-5265

АктивенСвязьVLEO
NORAD 55317·PAYLOAD·🇺🇸 United States

Запущен Jan 19, 2023 с Vandenberg Space Force Base

Loading…

Ближайшие Пролёты (ближайшие 24 часа)

TLE

СвежийSource: CelesTrak SupGP

Эпоха: Sep 14, 2026, 21:47 UTC

1 55317C 23010BA  26257.90812500  .00780200  00000+0  56314-1 0  2577
2 55317  69.9998 247.3614 0003083 266.0804 183.6411 15.03629864    19

Отслеживайте STARLINK-5265 в реальном времени с AllMySat

Download on the App Store